SWR9BL LSZH-LIRF

Flight info

Callsign SWR9BL
Flight time 1h 9m
Altitude 35000
Route DEGES Y170 ARGAX DCT RESIA DCT BENUS DCT BAGNO DCT GAVRA DCT RITEB
Aircraft A321/M-SDE3FGHIRWY/LB1

Departure

Time 2026-05-07 15:43
Airport Zürich Airport (LSZH)

Arrival

Time 2026-05-07 16:53
Airport Rome–Fiumicino Leonardo da Vinci International Airport (LIRF)
Time Latitude Longitude Altitude Speed Heading
2026-05-07 15:43 47.42951 8.67421 13476 ft 343 kts 69°
2026-05-07 15:43 47.43791 8.70735 14176 ft 346 kts 69°
2026-05-07 15:44 47.44641 8.74088 14847 ft 350 kts 69°
2026-05-07 15:44 47.45392 8.77527 15510 ft 354 kts 76°
2026-05-07 15:44 47.45842 8.81087 16165 ft 357 kts 83°
2026-05-07 15:44 47.45968 8.83575 16583 ft 360 kts 88°
2026-05-07 15:45 47.45877 8.87284 17184 ft 363 kts 96°
2026-05-07 15:45 47.45476 8.90978 17837 ft 363 kts 101°
2026-05-07 15:45 47.44991 8.94528 19141 ft 342 kts 102°
2026-05-07 15:45 47.44511 8.97853 20431 ft 321 kts 103°
2026-05-07 15:46 47.42503 9.03264 22230 ft 303 kts 140°
2026-05-07 15:46 47.40727 9.04925 22773 ft 304 kts 155°
2026-05-07 15:46 47.38801 9.06262 23245 ft 307 kts 155°
2026-05-07 15:47 47.36866 9.07604 23735 ft 309 kts 155°
2026-05-07 15:47 47.34906 9.08967 24185 ft 312 kts 155°
2026-05-07 15:47 47.32925 9.10347 24618 ft 315 kts 155°
2026-05-07 15:47 47.30928 9.11738 25019 ft 319 kts 154°
2026-05-07 15:48 47.28911 9.13147 25411 ft 322 kts 154°
2026-05-07 15:48 47.26909 9.14543 25795 ft 324 kts 154°
2026-05-07 15:48 47.24860 9.15972 26183 ft 327 kts 154°
2026-05-07 15:48 47.22750 9.17446 26388 ft 336 kts 154°
2026-05-07 15:49 47.20646 9.18917 26638 ft 342 kts 154°
2026-05-07 15:49 47.18477 9.20431 26893 ft 348 kts 154°
2026-05-07 15:49 47.16271 9.21969 27143 ft 353 kts 154°
2026-05-07 15:49 47.14034 9.23529 27394 ft 359 kts 154°
2026-05-07 15:50 47.11761 9.25108 27659 ft 364 kts 155°
2026-05-07 15:50 47.09463 9.26702 27902 ft 368 kts 154°
2026-05-07 15:50 47.07130 9.28321 28132 ft 373 kts 154°
2026-05-07 15:50 47.04870 9.30130 28302 ft 363 kts 144°
2026-05-07 15:51 47.02975 9.32480 28474 ft 355 kts 137°
2026-05-07 15:51 47.01129 9.34934 28654 ft 362 kts 138°
2026-05-07 15:51 46.99241 9.37425 28828 ft 368 kts 138°
2026-05-07 15:51 46.97320 9.39953 29006 ft 373 kts 138°
2026-05-07 15:52 46.95377 9.42506 29180 ft 378 kts 138°
2026-05-07 15:52 46.93411 9.45091 29359 ft 382 kts 138°
2026-05-07 15:52 46.91447 9.47672 29535 ft 386 kts 138°
2026-05-07 15:52 46.89434 9.50312 29663 ft 392 kts 138°
2026-05-07 15:53 46.87383 9.52997 29768 ft 399 kts 138°
2026-05-07 15:53 46.85297 9.55730 29869 ft 406 kts 138°
2026-05-07 15:53 46.83181 9.58508 29970 ft 413 kts 138°
2026-05-07 15:53 46.81030 9.61324 30072 ft 419 kts 138°
2026-05-07 15:54 46.78835 9.64186 30170 ft 425 kts 138°
2026-05-07 15:54 46.76615 9.67077 30273 ft 431 kts 138°
2026-05-07 15:54 46.74367 9.70005 30379 ft 436 kts 138°
2026-05-07 15:55 46.69784 9.75975 30573 ft 447 kts 138°
2026-05-07 15:55 46.67447 9.79010 30675 ft 452 kts 138°
2026-05-07 15:55 46.65115 9.82025 30774 ft 456 kts 138°
2026-05-07 15:56 46.60348 9.88200 31119 ft 459 kts 138°
2026-05-07 15:56 46.57964 9.91286 31370 ft 459 kts 138°
2026-05-07 15:56 46.55576 9.94369 31618 ft 459 kts 138°
2026-05-07 15:56 46.53190 9.97444 31867 ft 458 kts 138°
2026-05-07 15:57 46.50806 10.00509 32130 ft 458 kts 138°
2026-05-07 15:57 46.48396 10.03545 32366 ft 457 kts 143°
2026-05-07 15:57 46.45718 10.05959 32610 ft 456 kts 152°
2026-05-07 15:57 46.42883 10.08119 32845 ft 457 kts 152°
2026-05-07 15:58 46.40064 10.10261 32986 ft 459 kts 152°
2026-05-07 15:58 46.37234 10.12407 33137 ft 460 kts 152°
2026-05-07 15:58 46.34392 10.14559 33288 ft 461 kts 152°
2026-05-07 15:58 46.31545 10.16711 33438 ft 462 kts 152°
2026-05-07 15:59 46.28695 10.18868 33587 ft 463 kts 152°
2026-05-07 15:59 46.25876 10.20998 33733 ft 461 kts 152°
2026-05-07 15:59 46.23014 10.23160 34124 ft 454 kts 152°
2026-05-07 15:59 46.20231 10.25260 34498 ft 451 kts 152°
2026-05-07 16:00 46.17446 10.27361 34647 ft 452 kts 152°
2026-05-07 16:00 46.14701 10.29427 34907 ft 450 kts 152°
2026-05-07 16:00 46.11923 10.31512 34982 ft 450 kts 152°
2026-05-07 16:01 46.06391 10.35649 34982 ft 445 kts 153°
2026-05-07 16:01 46.00883 10.39769 34998 ft 449 kts 152°
2026-05-07 16:02 45.95314 10.43931 34986 ft 453 kts 152°
2026-05-07 16:02 45.89709 10.48115 34986 ft 453 kts 152°
2026-05-07 16:03 45.84110 10.52279 34986 ft 453 kts 153°
2026-05-07 16:03 45.78571 10.56391 34983 ft 447 kts 153°
2026-05-07 16:04 45.73046 10.60476 34998 ft 446 kts 153°
2026-05-07 16:04 45.67535 10.64545 34985 ft 445 kts 153°
2026-05-07 16:05 45.66033 10.65653 34986 ft 443 kts 153°
2026-05-07 16:07 45.64413 10.66846 35008 ft 442 kts 153°
2026-05-07 16:08 45.58993 10.70833 34983 ft 442 kts 153°
2026-05-07 16:08 45.53494 10.74860 34987 ft 446 kts 153°
2026-05-07 16:09 45.47956 10.78917 34987 ft 447 kts 153°
2026-05-07 16:09 45.42432 10.82969 34983 ft 447 kts 153°
2026-05-07 16:10 45.36892 10.87007 35001 ft 447 kts 153°
2026-05-07 16:10 45.31355 10.91027 34984 ft 447 kts 153°
2026-05-07 16:11 45.25859 10.95021 34986 ft 447 kts 153°
2026-05-07 16:11 45.20328 10.99032 34986 ft 447 kts 153°
2026-05-07 16:12 45.14793 11.03044 34984 ft 447 kts 153°
2026-05-07 16:12 45.12034 11.05039 34811 ft 444 kts 153°
2026-05-07 16:12 45.09282 11.07021 34219 ft 443 kts 153°
2026-05-07 16:12 45.06534 11.08996 33998 ft 445 kts 153°
2026-05-07 16:13 45.03763 11.10987 34008 ft 447 kts 153°
2026-05-07 16:13 44.98210 11.14982 34009 ft 448 kts 153°
2026-05-07 16:14 44.92643 11.18971 34009 ft 448 kts 153°
2026-05-07 16:14 44.87019 11.22775 34009 ft 448 kts 156°
2026-05-07 16:15 44.81257 11.26166 34010 ft 448 kts 158°
2026-05-07 16:15 44.75476 11.29473 34006 ft 448 kts 158°
2026-05-07 16:16 44.69764 11.32831 34010 ft 448 kts 157°
2026-05-07 16:16 44.64018 11.36269 34010 ft 448 kts 157°
2026-05-07 16:17 44.58282 11.39695 34008 ft 448 kts 157°
2026-05-07 16:17 44.52530 11.43103 34010 ft 448 kts 157°
2026-05-07 16:18 44.46780 11.46490 34010 ft 448 kts 157°
2026-05-07 16:18 44.41025 11.49883 34010 ft 449 kts 157°
2026-05-07 16:19 44.35305 11.53257 34010 ft 449 kts 157°
2026-05-07 16:19 44.29545 11.56642 34010 ft 450 kts 157°
2026-05-07 16:20 44.23768 11.60013 34007 ft 450 kts 158°
2026-05-07 16:20 44.17888 11.63051 34007 ft 451 kts 161°
2026-05-07 16:21 44.11928 11.65858 34010 ft 452 kts 161°
2026-05-07 16:21 44.06032 11.68640 34008 ft 441 kts 161°
2026-05-07 16:22 44.00200 11.71464 34010 ft 446 kts 160°
2026-05-07 16:22 43.94341 11.74350 34007 ft 447 kts 160°
2026-05-07 16:23 43.88481 11.77222 34007 ft 447 kts 160°
2026-05-07 16:23 43.82598 11.80077 34010 ft 449 kts 161°
2026-05-07 16:24 43.76712 11.82778 34007 ft 447 kts 167°
2026-05-07 16:24 43.70665 11.84691 34008 ft 445 kts 167°
2026-05-07 16:25 43.64628 11.86611 34010 ft 445 kts 167°
2026-05-07 16:25 43.58602 11.88535 34009 ft 443 kts 167°
2026-05-07 16:26 43.52636 11.90436 33644 ft 438 kts 167°
2026-05-07 16:26 43.49683 11.91374 33192 ft 432 kts 167°
2026-05-07 16:26 43.46773 11.92294 32742 ft 426 kts 167°
2026-05-07 16:26 43.44865 11.92898 32444 ft 423 kts 167°
2026-05-07 16:27 43.41045 11.94114 31844 ft 419 kts 167°
2026-05-07 16:27 43.38217 11.95011 31390 ft 416 kts 167°
2026-05-07 16:27 43.35433 11.95890 30938 ft 413 kts 167°
2026-05-07 16:27 43.32648 11.96769 30493 ft 409 kts 167°
2026-05-07 16:28 43.29890 11.97638 30042 ft 404 kts 167°
2026-05-07 16:28 43.27166 11.98494 29591 ft 398 kts 167°
2026-05-07 16:28 43.24485 11.99333 29142 ft 393 kts 167°
2026-05-07 16:28 43.21831 12.00165 28694 ft 387 kts 167°
2026-05-07 16:29 43.19220 12.00986 28239 ft 382 kts 167°
2026-05-07 16:29 43.16650 12.01793 27785 ft 376 kts 167°
2026-05-07 16:29 43.14121 12.02585 27338 ft 371 kts 167°
2026-05-07 16:29 43.11623 12.03368 26896 ft 366 kts 167°
2026-05-07 16:30 43.09174 12.04137 26500 ft 363 kts 167°
2026-05-07 16:30 43.06714 12.04910 26069 ft 361 kts 167°
2026-05-07 16:30 43.04275 12.05674 25616 ft 358 kts 167°
2026-05-07 16:30 43.01856 12.06431 25144 ft 356 kts 167°
2026-05-07 16:31 42.99444 12.07185 24665 ft 354 kts 167°
2026-05-07 16:31 42.97051 12.07934 24189 ft 352 kts 167°
2026-05-07 16:31 42.94674 12.08675 23714 ft 349 kts 167°
2026-05-07 16:31 42.92315 12.09409 23235 ft 347 kts 167°
2026-05-07 16:32 42.89963 12.10142 22766 ft 345 kts 167°
2026-05-07 16:32 42.87628 12.10862 22286 ft 343 kts 167°
2026-05-07 16:32 42.85310 12.11578 21810 ft 341 kts 167°
2026-05-07 16:32 42.83002 12.12290 21332 ft 338 kts 167°
2026-05-07 16:33 42.80714 12.12998 20858 ft 336 kts 167°
2026-05-07 16:33 42.78441 12.13706 20373 ft 334 kts 167°
2026-05-07 16:33 42.76173 12.14409 19905 ft 333 kts 167°
2026-05-07 16:33 42.73924 12.15104 19452 ft 330 kts 167°
2026-05-07 16:34 42.71693 12.15796 19001 ft 327 kts 167°
2026-05-07 16:34 42.69538 12.16742 18547 ft 325 kts 155°
2026-05-07 16:34 42.67562 12.18208 18100 ft 322 kts 149°
2026-05-07 16:34 42.65642 12.19757 17644 ft 320 kts 149°
2026-05-07 16:35 42.63729 12.21292 17193 ft 318 kts 149°
2026-05-07 16:35 42.61824 12.22814 16754 ft 316 kts 149°
2026-05-07 16:35 42.60572 12.23810 16444 ft 315 kts 149°
2026-05-07 16:35 42.58069 12.25803 15849 ft 313 kts 149°
2026-05-07 16:36 42.56196 12.27297 15397 ft 311 kts 149°
2026-05-07 16:36 42.54336 12.28783 14947 ft 310 kts 149°
2026-05-07 16:36 42.52483 12.30258 14493 ft 308 kts 149°
2026-05-07 16:36 42.50638 12.31726 14045 ft 307 kts 149°
2026-05-07 16:37 42.49397 12.32712 13741 ft 306 kts 149°
2026-05-07 16:37 42.47569 12.34167 13285 ft 304 kts 149°
2026-05-07 16:37 42.45750 12.35615 12839 ft 302 kts 149°
2026-05-07 16:37 42.43941 12.37055 12385 ft 301 kts 149°
2026-05-07 16:38 42.42165 12.38466 11943 ft 299 kts 149°
2026-05-07 16:38 42.40376 12.39884 11494 ft 297 kts 149°
2026-05-07 16:38 42.38596 12.41292 11040 ft 296 kts 149°
2026-05-07 16:38 42.36824 12.42693 10592 ft 293 kts 150°
2026-05-07 16:39 42.34957 12.43751 10138 ft 291 kts 163°
2026-05-07 16:39 42.33037 12.44550 9811 ft 285 kts 163°
2026-05-07 16:39 42.31175 12.45311 9501 ft 278 kts 167°
2026-05-07 16:39 42.29288 12.45447 9230 ft 270 kts 189°
2026-05-07 16:40 42.27543 12.44617 8980 ft 266 kts 212°
2026-05-07 16:40 42.26184 12.42949 8729 ft 265 kts 234°
2026-05-07 16:40 42.25407 12.40713 8518 ft 264 kts 257°
2026-05-07 16:40 42.25315 12.38256 8317 ft 263 kts 279°
2026-05-07 16:41 42.25915 12.35941 8096 ft 263 kts 301°
2026-05-07 16:41 42.27116 12.34103 7836 ft 262 kts 323°
2026-05-07 16:41 42.28621 12.32736 7598 ft 262 kts 327°
2026-05-07 16:41 42.30144 12.31374 7346 ft 261 kts 326°
2026-05-07 16:42 42.31638 12.30033 7099 ft 260 kts 326°
2026-05-07 16:42 42.33138 12.28680 6850 ft 259 kts 326°
2026-05-07 16:42 42.34669 12.27405 6603 ft 258 kts 327°
2026-05-07 16:42 42.35873 12.25665 6373 ft 256 kts 296°
2026-05-07 16:43 42.36297 12.23338 6150 ft 256 kts 270°
2026-05-07 16:43 42.35985 12.21003 5922 ft 251 kts 247°
2026-05-07 16:43 42.35025 12.19058 5697 ft 250 kts 223°
2026-05-07 16:43 42.33563 12.17821 5487 ft 249 kts 198°
2026-05-07 16:44 42.31863 12.17506 5287 ft 248 kts 176°
2026-05-07 16:44 42.30143 12.17682 5087 ft 248 kts 175°
2026-05-07 16:44 42.28423 12.17862 4883 ft 248 kts 175°
2026-05-07 16:44 42.26707 12.18039 4678 ft 247 kts 175°
2026-05-07 16:45 42.24997 12.18214 4517 ft 246 kts 175°
2026-05-07 16:45 42.23314 12.18382 4364 ft 245 kts 175°
2026-05-07 16:45 42.21618 12.18550 4219 ft 245 kts 176°
2026-05-07 16:45 42.19913 12.18718 4069 ft 245 kts 175°
2026-05-07 16:46 42.18219 12.18887 3919 ft 244 kts 175°
2026-05-07 16:46 42.16525 12.19057 3768 ft 243 kts 175°
2026-05-07 16:46 42.14840 12.19221 3643 ft 243 kts 177°
2026-05-07 16:46 42.13150 12.19269 3520 ft 242 kts 180°
2026-05-07 16:47 42.11467 12.19243 3392 ft 241 kts 181°
2026-05-07 16:47 42.09818 12.19198 3267 ft 237 kts 181°
2026-05-07 16:47 42.08214 12.19153 3167 ft 226 kts 181°
2026-05-07 16:47 42.06658 12.19116 3068 ft 222 kts 181°
2026-05-07 16:48 42.05123 12.19086 3064 ft 220 kts 181°
2026-05-07 16:48 42.03603 12.19058 3063 ft 213 kts 181°
2026-05-07 16:48 42.02145 12.19038 3083 ft 207 kts 179°
2026-05-07 16:48 42.00760 12.19367 3065 ft 198 kts 164°
2026-05-07 16:49 41.99503 12.19883 2988 ft 183 kts 162°
2026-05-07 16:49 41.98314 12.20386 2795 ft 176 kts 162°
2026-05-07 16:49 41.97161 12.20872 2594 ft 170 kts 162°
2026-05-07 16:49 41.96052 12.21339 2376 ft 164 kts 162°
2026-05-07 16:50 41.94987 12.21787 2156 ft 157 kts 162°
2026-05-07 16:50 41.93970 12.22214 1956 ft 153 kts 162°
2026-05-07 16:50 41.92974 12.22633 1751 ft 148 kts 162°
2026-05-07 16:50 41.92000 12.23042 1561 ft 146 kts 162°
2026-05-07 16:51 41.91034 12.23448 1366 ft 144 kts 162°
2026-05-07 16:51 41.90087 12.23845 1175 ft 141 kts 162°
2026-05-07 16:51 41.89155 12.24237 995 ft 140 kts 162°
2026-05-07 16:51 41.88231 12.24624 808 ft 139 kts 162°
2026-05-07 16:52 41.87309 12.25011 626 ft 138 kts 162°
2026-05-07 16:52 41.86394 12.25395 435 ft 138 kts 162°
2026-05-07 16:52 41.85481 12.25777 258 ft 137 kts 162°
2026-05-07 16:52 41.84570 12.26159 72 ft 137 kts 163°
2026-05-07 16:53 41.83703 12.26532 18 ft 110 kts 162°
2026-05-07 16:53 41.83201 12.26740 11 ft 59 kts 163°
2026-05-07 16:53 41.82882 12.26864 13 ft 35 kts 171°
2026-05-07 16:53 41.82673 12.26859 11 ft 30 kts 188°
2026-05-07 16:54 41.82558 12.26826 10 ft 0 kts 193°
2026-05-07 16:54 41.82557 12.26825 10 ft 2 kts 193°
2026-05-07 16:54 41.82478 12.26802 11 ft 16 kts 192°
2026-05-07 16:55 41.82368 12.26779 11 ft 16 kts 180°
2026-05-07 16:55 41.82262 12.26805 11 ft 16 kts 163°
2026-05-07 16:55 41.82159 12.26847 11 ft 16 kts 161°
2026-05-07 16:55 41.82055 12.26891 11 ft 15 kts 162°
2026-05-07 16:56 41.81954 12.26934 11 ft 15 kts 162°
2026-05-07 16:56 41.81855 12.26976 11 ft 15 kts 162°
2026-05-07 16:56 41.81664 12.27055 12 ft 14 kts 163°
2026-05-07 16:57 41.81570 12.27093 12 ft 14 kts 163°
2026-05-07 16:57 41.81479 12.27131 12 ft 14 kts 162°
2026-05-07 16:57 41.81380 12.27172 12 ft 16 kts 162°
2026-05-07 16:57 41.81278 12.27215 12 ft 15 kts 162°
2026-05-07 16:58 41.81177 12.27259 14 ft 15 kts 162°
2026-05-07 16:58 41.81079 12.27300 12 ft 15 kts 162°
2026-05-07 16:58 41.80981 12.27339 14 ft 14 kts 167°
2026-05-07 16:58 41.80882 12.27345 13 ft 14 kts 186°
2026-05-07 16:59 41.80784 12.27324 13 ft 14 kts 190°
2026-05-07 16:59 41.80694 12.27281 13 ft 14 kts 216°
2026-05-07 16:59 41.80633 12.27144 13 ft 20 kts 250°
2026-05-07 16:59 41.80586 12.26974 14 ft 19 kts 250°
2026-05-07 17:00 41.80540 12.26806 14 ft 19 kts 250°
2026-05-07 17:00 41.80495 12.26645 16 ft 18 kts 250°
2026-05-07 17:00 41.80453 12.26492 15 ft 13 kts 249°
2026-05-07 17:00 41.80429 12.26408 17 ft 6 kts 244°
2026-05-07 17:01 41.80399 12.26372 15 ft 6 kts 203°
2026-05-07 17:01 41.80349 12.26372 14 ft 8 kts 168°
2026-05-07 17:01 41.80290 12.26398 15 ft 10 kts 160°
2026-05-07 17:01 41.80186 12.26389 14 ft 20 kts 204°
2026-05-07 17:02 41.80062 12.26309 16 ft 20 kts 204°
2026-05-07 17:02 41.79938 12.26236 14 ft 20 kts 204°
2026-05-07 17:02 41.79849 12.26181 14 ft 11 kts 205°
2026-05-07 17:02 41.79786 12.26136 15 ft 10 kts 217°
2026-05-07 17:03 41.79769 12.26053 16 ft 9 kts 287°
2026-05-07 17:03 41.79797 12.25977 14 ft 9 kts 295°
2026-05-07 17:03 41.79827 12.25891 16 ft 10 kts 295°
2026-05-07 17:03 41.79849 12.25813 14 ft 5 kts 270°
2026-05-07 17:04 41.79827 12.25784 14 ft 4 kts 207°
2026-05-07 17:04 41.79795 12.25764 14 ft 6 kts 205°
2026-05-07 17:04 41.79758 12.25740 15 ft 4 kts 209°
2026-05-07 17:04 41.79747 12.25714 14 ft 3 kts 257°
2026-05-07 17:05 41.79756 12.25686 14 ft 4 kts 296°
2026-05-07 17:05 41.79763 12.25666 14 ft 0 kts 295°